{"data":{"norad_id":63955,"intl_designator":"2025-099D","name":"STARLINK-34170","alt_names":[],"object_type":"PAYLOAD","status":"ACTIVE","operator":null,"country":"US","launch_date":"2025-05-13","launch_site_code":"AFETR","launch_vehicle":null,"mission":null,"orbit_class":"UNKNOWN","rcs_meters":null,"size_class":null,"mass_kg":null,"dimensions":null,"purposes":["comms"],"wikipedia_slug":null,"has_3d_model":false,"image_url":null,"decayed_at":null,"tle_current":{"epoch":"2026-05-24T22:31:30.464256Z","epoch_age_seconds":70580,"freshness":"FRESH","line1":"1 63955U 25099D   26144.93854704  .00012963  00000+0  47960-3 0  9999","line2":"2 63955  42.9999 105.9510 0000858 255.9044 104.1712 15.27591752 58983","mean_motion":15.27591752,"eccentricity":8.58e-5,"inclination_deg":42.9999,"raan_deg":105.951,"arg_perigee_deg":255.9044,"mean_anomaly_deg":104.1712,"bstar":0.0004796,"rev_number":5898,"period_min":94.26602350495,"perigee_km":482.42521980171,"apogee_km":483.60259329728,"semimajor_km":6861.1509065495,"source":"CELESTRAK","updated_at":"2026-05-25T13:38:20.211160Z"}}}